Wind_Speed
62 61 60 60 60 63 65 66 66 65 64 62 60 59 57 55 52 50 50 43 33 29 31 32 31 29 28 27 26 22 21 20 16 13 11 10 8 6 3 1 3 6 10 12 13 12 13 15 16 18 19 21 22 23 24 25 25 25 26 26 26 26 26 26 27 28 28 28 28 28 29 30 31 31 31 31 31 31 30 29 28 26 24 22 20 18
63 63 63 64 64 65 67 67 67 66 66 64 62 61 59 57 55 53 53 49 39 31 32 34 33 31 29 28 27 25 24 23 19 16 14 12 10 8 5 3 1 4 8 11 11 11 12 13 14 16 17 19 21 22 24 24 25 25 25 26 26 26 26 26 26 28 28 29 29 29 29 30 31 32 32 31 31 31 31 31 30 28 27 25 23 22
66 66 67 68 67 67 68 68 67 67 67 65 64 63 61 60 58 56 55 53 45 35 32 33 33 32 31 29 28 29 28 25 22 19 16 14 12 10 8 6 4 3 5 9 10 10 10 12 13 14 15 17 18 20 22 23 24 25 25 25 26 26 26 26 26 27 28 29 29 29 29 30 32 33 33 32 32 31 31 31 31 30 30 29 27 25
69 71 72 71 69 68 69 68 67 68 68 67 66 65 63 62 60 58 57 55 50 41 32 32 34 34 34 32 30 31 30 27 24 22 18 17 14 11 11 9 7 4 4 6 9 9 9 10 11 12 13 14 16 17 19 20 22 23 24 25 26 26 26 26 26 27 28 29 29 29 30 31 32 33 33 33 33 33 32 32 32 31 31 31 30 28
73 74 74 73 71 71 70 69 68 69 70 69 69 67 65 64 62 61 58 56 53 46 37 34 36 36 36 34 33 33 32 28 26 24 20 18 17 14 13 11 9 6 4 4 7 9 8 8 9 11 11 12 14 15 17 18 19 21 22 23 24 25 25 25 25 26 27 28 29 29 30 30 31 32 33 34 34 34 34 34 33 33 32 32 31 30
77 76 75 74 73 73 72 69 70 71 72 72 71 69 67 66 64 63 60 58 55 50 43 40 38 37 36 35 35 35 33 29 28 27 23 21 20 17 14 12 10 7 5 3 4 7 8 7 8 9 10 10 11 13 15 16 17 19 20 22 23 24 24 24 25 25 25 26 28 29 29 30 30 31 32 33 34 34 34 34 35 35 34 33 32 31
81 78 77 77 76 75 73 70 71 73 74 73 73 71 69 67 66 65 62 60 57 52 49 46 40 37 36 36 36 36 35 32 30 29 26 24 23 18 15 13 12 10 7 5 4 5 6 7 7 7 8 9 10 11 13 14 16 17 18 20 21 22 22 23 23 23 23 24 26 27 28 29 30 30 31 32 33 34 34 34 35 35 35 35 34 33
85 83 81 79 78 77 74 72 72 74 75 74 74 73 71 69 68 67 65 62 60 54 51 49 42 37 37 37 37 38 37 35 33 31 28 27 25 20 18 16 14 12 9 7 6 4 5 6 7 7 6 7 8 9 10 12 14 16 17 18 18 19 20 21 21 22 22 22 23 24 26 27 28 29 30 31 32 32 33 34 34 35 35 35 35 35
89 87 85 82 80 78 76 74 74 74 75 75 75 74 73 72 70 69 67 64 62 57 53 49 44 40 39 40 39 38 37 36 35 33 31 29 27 23 21 19 17 15 12 10 9 7 5 6 7 7 7 6 6 7 9 10 12 14 16 17 17 18 19 19 20 20 21 21 22 23 23 24 26 27 28 30 30 31 32 33 34 35 35 35 35 35
90 89 88 84 81 80 79 78 76 75 75 76 76 76 75 74 72 70 69 66 64 62 57 52 47 43 42 41 41 38 36 36 36 35 33 30 28 25 23 21 19 18 15 13 11 10 8 6 6 7 7 6 5 5 7 8 10 12 14 16 17 17 18 18 19 20 20 21 21 21 22 23 23 24 26 27 28 29 30 31 33 34 34 35 35 35
89 91 89 87 84 83 82 80 78 76 76 77 77 77 77 75 73 72 71 68 66 66 63 58 52 48 44 43 42 40 39 39 37 35 33 32 30 28 26 24 23 22 19 16 14 13 11 8 6 6 6 6 5 4 5 7 8 10 12 13 15 16 16 17 18 19 19 20 21 21 21 22 22 23 24 25 26 27 28 29 31 32 33 33 34 35
85 91 91 91 88 85 82 80 79 77 77 78 78 78 77 76 75 73 72 70 66 67 68 64 60 53 47 45 44 44 45 43 39 36 35 33 32 30 29 28 26 24 22 20 18 16 14 11 8 6 6 6 6 5 5 6 7 9 10 11 12 14 15 16 16 17 18 19 20 20 21 21 22 22 23 23 24 24 26 27 28 30 31 31 32 33
79 89 92 92 91 87 83 80 79 79 78 80 80 79 77 76 76 75 74 71 68 67 68 67 64 57 52 50 49 48 48 45 41 39 37 35 33 31 30 29 27 26 25 23 21 19 17 14 11 9 7 7 6 6 5 5 5 6 7 8 9 10 12 13 14 15 16 17 18 19 20 20 20 21 21 22 23 23 24 25 26 27 29 30 30 31
73 86 91 92 91 88 85 81 80 80 80 80 81 81 79 78 77 77 76 73 69 68 66 63 62 59 55 54 53 51 50 48 44 40 36 36 35 33 31 30 29 27 26 26 24 21 19 17 15 12 9 8 7 6 6 5 3 3 4 6 6 7 8 10 11 12 13 15 17 18 18 19 19 19 20 21 22 22 23 24 25 25 27 28 29 30
67 82 90 91 90 88 86 84 82 83 83 83 83 83 81 80 79 78 78 75 70 68 66 61 61 60 57 55 55 55 54 51 46 40 37 37 36 35 33 31 31 29 28 29 27 24 22 20 18 15 12 10 9 7 7 6 3 1 2 4 5 5 6 7 8 9 10 11 13 14 15 16 17 18 18 19 20 21 22 23 24 24 25 27 28 28
63 78 88 90 88 87 87 86 85 86 85 84 83 83 83 83 82 80 79 76 70 68 67 63 60 60 57 55 56 58 56 52 48 42 39 39 38 37 36 35 34 33 32 32 32 28 25 23 21 19 16 13 11 9 8 7 5 3 1 2 3 4 4 5 6 7 8 8 9 10 11 13 14 16 16 17 18 20 20 22 22 23 24 25 26 27
61 74 85 88 87 87 87 86 86 87 86 84 84 85 84 84 83 81 79 77 72 68 68 66 62 59 57 54 53 56 56 52 49 45 42 42 41 39 39 38 37 36 35 34 34 32 29 26 24 21 19 16 14 12 10 9 8 6 4 2 2 3 4 4 5 6 6 7 6 6 7 8 10 12 14 14 16 17 19 20 21 22 22 23 24 25
61 72 83 88 88 88 87 86 87 88 87 86 86 87 85 84 84 83 80 79 76 71 70 69 65 60 58 55 55 56 55 53 50 48 46 46 43 42 41 40 38 37 35 34 34 34 31 28 26 24 22 20 17 15 14 13 11 10 8 6 3 2 2 3 5 6 6 6 6 6 7 7 6 7 10 11 13 14 16 17 19 20 21 22 22 22
62 71 81 88 89 88 87 87 89 90 88 87 87 86 85 85 85 84 83 81 79 75 70 68 66 63 60 58 59 59 56 53 51 49 48 48 46 44 43 41 39 38 36 34 33 34 32 30 29 27 25 23 22 20 18 17 14 12 11 9 8 6 3 2 2 4 5 6 5 6 8 8 6 5 6 7 8 11 13 14 16 17 19 20 21 21
60 71 81 88 90 89 88 88 90 91 89 87 87 85 85 86 87 86 85 82 80 77 72 67 66 65 62 60 61 62 58 54 52 50 49 48 47 46 44 41 38 38 38 36 34 35 34 33 31 30 28 26 25 24 22 20 18 15 13 12 11 9 8 6 5 3 2 2 2 2 4 6 6 5 4 4 4 7 9 11 12 14 15 17 18 19
58 71 81 88 92 91 90 89 90 91 90 88 87 86 86 87 87 87 85 82 81 80 75 70 67 66 64 62 62 62 58 55 53 52 51 49 47 46 44 41 38 38 39 38 37 37 37 36 34 31 30 29 27 26 25 22 20 18 15 13 12 11 11 10 9 8 7 6 4 4 3 2 2 3 3 3 3 4 6 7 9 10 12 13 14 15
55 69 82 88 92 93 91 91 91 91 90 89 88 87 87 87 86 85 84 83 82 81 78 73 69 67 65 64 64 62 59 57 56 54 52 50 49 47 46 43 42 41 41 40 39 39 37 35 35 33 31 30 29 28 27 25 23 21 19 17 16 15 14 14 13 12 12 11 10 9 8 6 5 4 2 0 0 1 2 3 4 6 8 9 10 11
53 67 81 89 92 94 92 91 91 91 91 89 87 86 86 85 83 82 83 83 82 80 77 73 70 69 67 66 66 64 61 59 59 57 55 53 51 51 49 46 45 44 43 41 40 39 39 37 37 36 34 32 31 30 29 27 25 24 22 21 20 19 17 17 16 16 15 14 14 14 12 11 10 8 7 6 5 4 3 1 1 2 4 5 6 7
51 63 78 89 93 94 93 91 91 92 91 88 86 85 85 84 82 81 82 82 81 80 76 73 72 71 70 69 68 67 64 62 61 60 57 55 54 53 52 48 46 45 43 41 38 39 41 40 39 38 37 35 34 32 30 28 27 26 25 24 23 21 20 20 19 19 18 17 18 17 16 15 14 13 11 10 10 9 7 6 4 3 3 3 4 4
48 60 74 87 94 95 94 93 92 92 91 89 87 87 86 84 82 81 82 82 81 80 77 75 74 72 70 70 69 69 67 64 63 61 58 58 57 56 54 51 49 47 45 42 40 40 41 41 40 40 39 37 35 33 32 31 29 27 26 26 25 24 23 23 22 22 21 21 21 20 20 19 18 17 16 14 14 13 12 11 9 7 7 5 4 5
46 57 70 83 92 94 94 94 93 92 91 90 89 88 87 85 83 82 83 83 82 82 80 78 78 74 71 70 69 69 69 65 63 62 60 60 60 58 56 53 51 49 46 45 44 43 42 41 40 40 38 37 35 32 32 32 31 29 28 28 28 29 28 26 25 25 25 25 25 24 24 23 22 21 19 18 16 16 15 14 12 11 10 9 7 7
42 54 66 79 89 93 93 93 92 91 91 90 89 89 88 87 85 84 84 83 83 83 82 81 80 75 71 71 70 69 69 67 64 63 62 62 61 60 58 56 54 52 48 47 46 45 44 42 41 40 39 38 37 34 32 32 31 31 31 32 33 33 31 29 29 29 29 28 28 27 27 26 26 24 23 21 20 18 17 16 15 14 13 12 11 9
38 50 62 75 86 92 93 92 91 90 90 90 89 89 88 88 87 85 84 84 84 83 83 82 80 77 72 71 71 71 71 69 65 63 62 62 62 61 60 58 56 55 51 48 46 45 45 44 43 42 41 41 40 37 35 34 33 33 35 36 36 34 31 32 32 32 32 31 30 30 30 29 28 28 27 25 23 22 21 19 18 17 16 16 14 13
34 46 58 71 82 90 93 92 91 90 90 91 91 89 88 87 87 85 84 85 84 85 86 83 81 79 74 70 71 72 73 73 69 65 63 62 61 60 60 59 58 57 54 49 45 44 45 46 45 44 43 43 41 39 37 36 35 35 36 37 37 35 34 35 36 35 34 33 32 33 33 31 30 29 29 29 27 25 24 23 21 19 18 18 17 16
30 41 54 66 78 87 93 93 92 91 91 91 91 90 88 87 87 86 85 85 86 87 87 85 83 81 77 72 69 70 74 76 73 70 66 63 61 60 60 60 59 58 57 52 48 45 44 46 46 45 44 44 42 40 39 39 38 37 38 38 37 36 36 37 38 38 35 34 34 35 35 34 32 30 30 30 30 29 27 25 24 23 21 20 20 19
26 36 48 61 73 84 91 94 93 92 92 92 91 90 89 88 87 87 85 86 87 87 87 87 86 84 81 76 70 67 71 75 75 73 69 66 63 61 60 61 60 60 58 55 52 48 45 46 45 44 44 43 42 41 41 42 41 40 40 39 37 37 36 37 40 41 39 37 37 36 36 36 34 32 30 30 31 31 30 27 25 25 25 25 24 23
22 31 43 55 68 80 89 94 94 93 93 93 93 92 90 89 88 88 87 87 87 86 85 86 86 85 84 81 75 69 69 73 76 73 71 68 65 62 61 61 62 62 60 58 56 52 48 46 45 44 45 44 43 42 43 44 44 43 42 41 40 40 39 39 41 42 42 42 41 38 37 36 36 35 32 31 32 33 32 30 28 27 27 28 28 28
20 28 38 49 62 75 86 93 95 95 95 94 94 93 92 91 90 89 88 87 86 86 86 85 83 83 84 84 81 75 69 71 76 76 73 70 67 64 63 62 62 63 62 60 58 56 52 49 46 46 46 46 44 43 43 43 43 42 42 42 41 42 42 43 45 46 48 49 48 45 42 40 38 36 34 33 34 34 35 33 31 30 29 29 30 30
17 24 34 44 56 69 82 90 95 96 96 95 95 95 94 92 92 91 89 87 86 86 85 82 79 79 81 82 83 80 73 71 75 78 77 73 70 67 65 65 64 64 63 62 59 57 56 53 50 49 47 46 45 43 43 43 43 43 43 42 42 43 44 47 49 51 53 54 53 52 48 45 42 39 37 36 36 35 36 36 34 34 33 32 32 31
15 21 30 40 50 62 77 88 93 95 95 95 95 96 95 93 93 92 90 88 87 85 84 81 76 74 76 79 80 79 76 72 73 78 80 77 73 70 68 68 67 65 63 62 60 60 59 56 54 53 49 46 46 45 45 44 45 46 46 44 45 46 48 52 54 54 55 55 55 55 53 49 46 44 42 41 39 37 38 39 39 38 37 36 36 35
16 18 27 36 46 56 70 83 91 94 95 95 96 96 96 95 94 93 91 89 88 86 84 82 79 77 78 79 79 79 79 75 73 77 81 81 77 73 71 70 69 68 65 62 62 63 63 59 57 55 52 48 47 47 47 46 47 49 48 47 48 49 52 56 56 56 57 56 55 56 56 53 50 48 46 45 43 42 41 40 40 40 41 42 42 41
22 17 23 32 42 51 61 75 86 92 95 96 97 97 97 97 96 94 93 90 89 88 87 85 85 87 86 84 82 82 83 80 75 76 81 82 80 77 74 72 71 70 69 67 66 66 65 62 60 58 56 55 53 51 51 51 52 52 50 50 51 52 54 56 56 55 58 59 58 58 60 58 55 51 49 47 45 44 43 41 38 38 40 43 45 45
28 19 20 28 38 48 55 65 78 88 93 97 98 98 98 98 97 96 94 92 90 90 90 90 90 90 89 88 87 85 85 84 80 77 79 82 82 81 78 76 73 71 70 70 69 68 67 66 64 62 61 61 60 58 56 56 56 56 55 54 55 55 55 57 58 57 57 58 60 62 63 63 60 56 54 52 49 48 45 42 40 39 38 41 45 48
31 24 19 24 34 44 53 60 70 81 90 96 99 99 99 99 98 96 95 94 93 93 93 94 94 87 83 87 91 88 85 85 85 81 79 81 84 84 82 80 76 72 70 71 71 70 70 69 68 66 64 65 66 65 63 62 59 58 59 60 61 61 60 59 60 61 59 57 60 63 65 65 64 61 59 57 58 58 55 50 48 48 47 48 50 52
32 28 21 22 29 40 50 56 64 75 86 94 99 100 100 100 98 97 96 95 95 95 94 97 98 91 82 85 93 93 87 86 87 85 82 81 83 85 84 83 80 75 72 73 74 74 74 74 72 69 67 67 68 67 67 68 67 63 62 64 66 68 68 66 64 64 63 60 61 64 66 66 66 65 63 62 64 65 63 59 55 54 55 55 55 56
32 31 24 22 26 34 45 54 61 70 81 91 98 100 101 100 99 98 97 97 97 97 96 97 100 99 91 88 94 97 93 89 89 89 86 83 83 85 86 85 84 80 77 77 78 79 78 78 76 73 69 69 70 69 67 69 71 71 68 68 70 71 72 73 72 70 69 66 65 65 65 65 65 65 65 66 68 68 67 65 61 59 60 60 59 60
32 33 27 22 24 30 40 49 58 66 76 86 95 100 101 101 100 99 99 99 98 98 98 98 100 103 98 92 95 100 98 92 90 91 90 88 86 86 88 88 87 85 83 82 81 81 81 80 79 77 73 70 71 72 70 68 70 74 74 74 74 75 75 75 76 75 74 72 70 68 67 66 65 65 65 67 69 70 69 68 65 63 63 64 63 64
32 34 29 23 23 27 35 45 54 63 72 81 91 98 101 102 102 101 101 100 99 99 99 99 99 102 102 97 95 99 101 98 94 92 93 92 90 88 89 90 91 90 89 87 85 83 83 83 82 81 78 74 73 74 74 72 70 72 76 77 77 79 80 80 79 79 78 77 75 73 72 71 70 70 70 70 71 70 69 68 67 65 65 66 67 67
33 34 30 23 22 25 31 41 51 60 68 76 86 94 99 101 102 102 101 100 100 100 100 100 99 100 102 100 96 96 100 101 98 94 93 94 94 92 90 90 91 93 94 92 90 87 86 86 85 85 83 80 77 75 76 75 73 72 74 76 78 80 82 84 85 84 83 82 81 79 78 77 75 74 75 75 74 73 71 69 67 65 65 67 69 70
33 35 32 24 21 22 27 36 46 55 64 71 80 88 95 99 100 101 101 100 100 100 100 100 100 100 100 101 98 95 97 100 100 97 94 93 94 94 93 91 91 93 94 95 94 93 92 91 90 90 89 87 84 81 79 78 77 75 75 76 76 78 81 84 86 88 87 87 85 83 82 80 79 79 79 78 78 77 75 74 72 70 69 71 72 73
32 36 33 24 20 20 24 31 39 50 59 65 73 80 88 94 97 99 101 101 100 101 100 100 101 100 100 100 99 96 96 99 102 100 97 94 93 93 94 93 93 94 94 95 96 95 95 95 94 94 94 94 93 90 86 83 81 80 79 79 78 77 78 81 84 87 89 89 89 88 86 85 84 83 83 82 82 81 81 81 80 79 79 79 79 79
32 35 33 24 19 19 21 27 34 43 51 58 64 68 77 88 95 98 101 101 100 100 101 100 100 101 101 101 100 98 97 99 102 103 102 98 96 96 95 94 95 97 97 97 97 97 97 98 98 98 99 99 99 98 95 91 87 85 84 83 82 80 80 80 81 84 86 88 90 90 90 90 89 88 87 87 87 87 87 87 87 87 86 86 86 85
30 34 33 24 18 16 17 23 30 37 44 50 51 48 57 76 90 95 99 101 100 101 103 102 101 101 102 102 102 101 100 99 101 103 104 102 100 100 100 98 97 98 100 101 100 100 100 100 100 101 102 102 102 103 102 99 95 91 89 88 87 86 85 84 83 84 85 87 88 89 90 91 92 92 91 91 91 91 91 90 90 89 89 88 87 86
29 32 32 25 18 15 15 20 26 32 40 46 45 39 45 65 83 91 97 101 101 102 104 103 102 101 102 103 103 103 102 101 101 102 104 104 102 101 103 104 101 99 100 103 104 104 103 102 102 103 104 104 104 105 106 105 102 98 96 94 93 92 90 89 87 86 86 87 88 89 90 91 92 92 92 93 93 94 94 93 92 91 90 89 87 86
28 31 31 26 19 15 14 18 25 32 40 47 51 47 47 58 71 83 91 96 100 102 103 103 102 100 100 102 104 104 104 103 102 103 104 106 105 103 103 105 106 104 102 102 104 106 106 106 105 105 105 106 107 107 107 108 108 106 103 101 100 98 97 95 93 91 91 90 90 91 92 93 94 94 94 94 94 94 94 95 94 94 93 92 91 91
28 30 31 25 19 16 14 19 25 33 43 52 56 54 51 53 62 73 83 90 97 101 103 103 102 100 99 100 102 104 105 105 104 104 104 105 107 107 106 105 107 109 108 106 105 106 107 108 108 108 108 108 109 110 109 110 111 111 110 108 106 105 104 102 99 98 96 95 95 95 96 97 98 99 99 99 98 98 97 97 96 96 95 95 95 95
Wind_Direction
222 224 224 222 220 219 217 214 212 212 210 209 208 208 207 206 205 201 201 201 200 202 200 200 205 203 203 206 207 214 216 213 213 215 224 240 245 241 230 140 57 64 65 58 50 51 58 60 62 61 61 63 65 65 64 63 63 63 63 63 62 60 59 57 55 54 54 53 54 54 53 54 55 56 57 58 58 59 60 62 63 64 65 67 70 71
218 219 220 220 220 220 218 214 212 211 210 209 207 207 207 206 205 203 201 201 200 203 206 204 204 204 205 206 205 207 213 214 212 214 219 228 234 232 218 194 129 77 73 69 60 53 59 64 64 66 66 66 66 66 65 64 63 62 62 63 62 60 59 57 55 55 54 54 54 54 54 54 54 56 57 58 58 58 59 60 62 62 62 64 66 67
214 214 216 217 219 220 218 214 211 211 210 208 207 207 207 206 206 204 202 202 201 202 208 208 205 205 205 203 201 205 213 215 211 212 218 222 225 222 212 198 180 130 86 80 71 59 60 66 67 68 70 69 68 67 65 64 62 61 61 61 62 61 60 58 57 55 55 55 55 55 55 54 55 55 56 57 58 58 59 59 61 61 61 61 63 64
214 212 213 215 217 220 218 214 211 210 209 207 207 207 206 206 206 205 203 202 201 202 205 207 205 203 203 201 201 207 214 213 210 211 218 223 221 215 211 203 190 165 117 95 84 72 62 68 70 69 70 71 70 68 65 64 64 62 62 61 62 62 61 60 59 58 57 57 58 57 57 56 56 56 55 56 57 58 59 60 60 61 61 60 61 61
216 213 213 214 217 219 219 214 211 209 208 207 206 206 206 206 206 205 204 202 200 200 202 205 205 205 205 204 204 209 214 212 209 211 216 220 217 212 211 207 195 174 148 118 97 85 70 68 75 72 70 72 72 72 70 67 66 65 64 62 62 63 63 62 61 61 59 59 60 60 59 59 58 58 57 56 57 58 59 60 61 61 61 61 61 61
218 214 212 212 215 219 219 215 211 209 208 206 206 206 206 206 206 206 205 202 199 198 202 206 206 206 206 206 207 210 214 212 210 212 214 213 213 212 210 210 203 184 167 158 118 101 85 75 79 78 73 70 72 74 75 73 70 68 67 65 63 63 62 62 62 62 62 61 61 61 61 61 61 60 60 59 58 59 59 60 61 61 62 62 62 62
218 215 212 210 211 215 218 215 212 209 207 206 205 205 206 205 206 206 205 203 199 198 202 208 206 203 204 205 207 211 213 212 210 213 213 208 209 211 208 208 205 194 180 179 168 128 105 87 84 87 80 74 70 72 76 77 74 71 69 67 64 63 61 61 61 62 63 62 62 61 62 62 63 62 62 62 61 61 60 60 61 61 62 62 63 63
216 214 212 210 208 211 214 215 214 210 207 206 205 204 205 205 206 206 205 202 199 198 201 206 205 202 204 205 207 210 211 210 210 213 212 206 206 209 209 207 203 199 192 186 193 175 134 106 94 94 93 84 74 70 72 75 76 74 71 69 66 63 61 60 61 62 63 63 62 61 61 61 62 63 63 64 63 63 62 61 61 61 61 62 63 64
214 212 212 210 207 208 209 211 213 211 207 205 204 204 205 205 205 206 206 203 199 198 198 200 201 201 204 207 208 209 210 209 209 211 210 206 205 208 211 209 201 198 199 194 196 198 171 135 110 102 100 99 85 72 69 69 74 74 73 71 69 66 65 64 62 62 62 62 61 61 61 61 61 62 63 63 63 63 63 62 61 60 61 61 62 63
213 211 211 210 208 206 206 208 212 211 207 205 204 204 204 205 205 205 206 203 200 199 198 196 196 197 200 206 209 207 209 211 211 210 210 209 207 209 212 213 204 198 201 200 198 202 192 168 140 118 108 106 102 85 73 67 67 72 72 72 72 70 70 68 66 65 64 62 61 61 61 60 60 60 61 61 61 62 62 63 62 61 60 60 61 61
211 210 209 209 208 207 205 206 210 210 207 206 204 204 204 204 205 205 206 204 201 200 200 197 194 194 196 203 206 205 206 210 208 209 213 212 210 209 212 216 209 199 202 203 201 204 199 187 172 146 125 114 113 109 89 75 66 66 67 69 72 72 73 72 70 68 66 65 63 62 61 60 60 60 60 61 61 61 61 61 63 62 61 60 60 60
210 208 208 208 208 207 204 204 208 210 207 206 205 204 204 204 204 205 205 205 202 201 202 201 198 197 199 203 204 203 206 207 205 210 218 217 213 211 211 216 212 202 203 206 204 205 202 193 188 176 154 134 124 127 115 94 78 67 63 63 68 72 75 76 74 71 69 68 67 65 63 61 61 60 61 61 61 61 61 61 62 62 61 60 60 59
209 207 206 207 207 205 203 202 204 208 208 206 204 203 204 203 204 205 205 205 203 202 203 204 204 202 202 204 205 205 206 208 208 212 218 219 215 213 213 214 212 206 206 209 209 208 205 196 192 192 179 159 140 138 139 121 95 73 59 55 61 69 76 80 78 76 74 72 70 67 65 63 62 61 62 62 63 62 62 63 63 62 61 60 60 59
207 206 205 206 206 204 202 201 202 205 207 206 205 203 203 202 203 204 205 204 203 202 202 203 204 202 200 203 206 207 208 209 210 211 214 216 213 213 214 213 212 211 209 212 212 210 208 202 197 197 191 177 161 150 152 149 125 79 57 55 58 64 73 79 80 79 78 76 72 68 67 65 64 63 63 64 64 64 64 64 64 63 63 62 61 60
206 204 204 205 205 203 202 200 200 203 205 206 205 204 202 201 201 203 204 203 203 201 199 199 200 198 197 201 206 209 210 211 212 211 212 214 211 211 213 212 210 211 210 212 213 210 209 206 201 199 197 190 180 171 166 164 161 129 74 67 65 66 70 74 75 78 79 79 74 70 67 66 64 64 65 66 65 65 65 65 64 64 64 64 63 62
205 203 203 203 204 202 202 200 199 202 204 204 205 204 202 201 200 201 203 203 202 201 199 199 198 196 197 200 204 209 210 211 213 212 211 213 211 210 212 212 211 209 208 210 212 210 208 208 205 200 199 197 191 187 185 181 177 173 153 88 78 78 75 70 70 72 73 75 76 74 69 67 66 64 63 65 66 67 67 66 66 65 64 64 64 63
203 202 201 202 202 202 202 200 199 201 203 203 204 205 203 201 200 200 202 202 202 201 200 200 200 198 198 200 204 208 209 210 212 212 210 212 212 211 211 213 213 212 208 209 213 212 209 208 208 203 200 201 199 196 197 197 194 192 195 191 116 91 85 79 72 70 67 66 70 71 62 64 71 70 65 63 64 67 68 68 68 66 64 63 62 63
201 200 199 200 201 202 201 200 199 201 202 203 204 204 203 202 200 200 201 202 201 200 200 201 201 201 201 202 206 209 209 210 212 212 210 210 212 214 214 213 214 215 212 210 213 216 213 209 209 206 202 202 202 203 204 205 203 200 202 206 208 181 110 93 83 79 76 69 69 67 54 55 75 82 75 69 65 66 66 66 67 67 65 63 61 62
201 198 198 198 199 201 201 200 200 201 202 203 203 203 203 203 201 200 200 201 200 200 199 200 200 202 202 203 207 210 209 208 209 209 209 209 212 215 216 214 213 217 217 211 212 218 217 213 211 209 205 203 204 207 208 209 208 205 205 209 215 217 214 192 125 99 89 81 77 71 55 54 76 94 90 82 73 69 67 63 64 64 64 63 61 59
201 197 197 197 198 200 200 200 201 201 201 203 203 202 203 203 202 200 200 201 200 199 199 197 198 201 201 202 207 210 208 205 206 206 207 209 211 214 215 215 214 217 219 213 210 214 217 215 213 212 208 205 207 210 211 212 211 210 209 212 218 222 227 231 228 217 177 121 99 76 44 47 65 77 79 83 82 86 81 69 63 62 61 62 62 59
203 198 196 197 198 199 199 200 201 201 201 202 203 202 202 203 202 201 200 200 200 200 199 197 197 200 201 201 205 208 206 203 203 205 206 208 210 213 215 215 215 218 220 216 211 211 214 216 216 215 212 209 209 212 214 214 215 216 217 220 225 228 231 235 236 240 239 234 234 244 264 305 353 32 55 65 74 107 105 84 69 65 61 60 62 60
205 200 197 197 198 199 199 199 200 201 201 202 202 202 203 203 203 202 201 201 200 200 200 198 198 200 201 201 204 206 203 202 203 204 205 205 207 211 213 214 214 216 218 217 213 211 212 216 220 219 216 213 213 216 217 217 217 219 221 223 228 231 233 235 236 238 242 244 245 246 248 256 267 278 283 281 337 152 136 100 72 68 62 60 61 60
207 203 199 197 198 199 199 199 200 201 202 201 202 202 203 203 203 202 202 202 201 200 200 198 198 201 203 203 205 205 202 201 203 204 204 203 204 209 212 214 215 216 217 217 216 214 212 214 219 221 219 216 216 218 220 219 219 220 222 224 227 232 236 238 240 241 243 247 250 251 251 252 253 258 262 260 257 254 244 247 32 56 55 52 57 58
208 206 201 198 199 199 199 199 200 201 202 201 201 202 203 202 202 203 203 203 202 201 200 198 197 201 204 205 206 207 205 204 205 205 204 201 203 207 210 213 215 218 219 220 222 220 216 213 214 218 219 217 216 218 222 224 223 222 225 228 230 232 237 241 246 248 248 250 253 255 255 255 253 253 257 259 261 262 261 265 275 287 324 353 20 37
210 207 204 201 200 199 199 199 200 201 201 200 200 202 202 201 201 202 203 204 203 201 199 198 198 200 203 205 207 209 208 208 208 207 205 202 203 206 209 212 214 216 218 220 222 223 221 217 215 216 218 218 218 219 222 226 228 227 227 231 233 235 237 241 246 251 253 254 256 258 259 259 259 257 256 257 261 265 269 271 275 280 290 301 318 339
213 208 206 204 202 200 200 200 200 200 201 201 200 201 201 201 201 201 202 203 202 201 199 198 199 201 203 205 207 209 209 208 207 207 205 204 205 206 209 211 213 215 216 218 219 221 222 221 220 217 217 220 220 220 223 228 231 232 233 235 237 239 239 239 243 247 252 254 255 257 260 261 262 262 261 261 262 265 271 276 280 281 281 283 290 305
217 211 208 205 203 202 201 201 200 200 201 201 201 201 201 201 201 201 201 202 202 202 199 199 200 201 203 205 207 209 209 207 206 206 205 205 206 207 209 211 213 213 214 216 218 220 221 222 222 220 220 223 225 224 226 232 235 236 237 237 239 239 240 240 243 245 247 250 254 256 259 262 265 266 266 267 266 266 268 271 274 273 269 270 274 281
219 214 210 207 204 203 202 202 201 200 201 202 202 202 202 202 201 201 201 202 202 202 200 200 200 200 203 206 208 210 211 207 206 207 207 207 207 207 209 211 212 212 212 214 218 220 221 223 224 222 221 225 228 228 231 237 241 242 242 242 241 242 244 245 247 248 248 249 251 254 256 259 262 264 266 266 266 267 267 267 269 269 263 260 263 267
223 216 212 209 206 204 203 203 202 200 201 203 203 202 202 203 202 201 201 202 202 202 202 200 200 200 201 205 208 212 213 211 209 210 211 211 210 210 210 210 212 213 213 214 216 218 220 222 223 222 222 224 228 230 232 237 242 244 245 247 248 250 253 252 251 252 252 252 253 254 254 254 256 260 263 265 265 265 267 267 267 266 262 256 257 261
228 220 215 210 208 206 204 203 202 201 201 203 204 203 202 203 203 202 202 202 202 203 203 202 201 201 201 203 207 212 215 214 213 214 215 215 214 212 212 211 212 214 214 213 214 215 216 219 220 220 221 223 226 229 230 231 236 241 243 246 250 254 257 258 258 256 253 253 255 256 255 254 254 257 260 263 264 265 266 266 263 262 259 256 256 260
231 224 218 213 210 208 205 203 203 201 201 203 204 204 203 203 204 203 202 203 203 203 203 203 204 203 202 202 204 210 215 215 215 215 216 215 215 214 214 213 213 214 214 214 214 214 214 216 219 219 220 221 224 228 230 231 234 237 239 241 244 247 249 254 259 260 259 256 254 254 256 255 253 253 255 258 262 265 265 263 260 259 259 258 259 261
236 225 221 216 212 209 207 205 203 202 202 203 204 204 204 204 204 204 203 204 204 204 204 205 206 205 205 204 204 208 214 216 215 214 215 215 214 213 213 214 214 214 214 214 215 215 214 215 218 219 219 220 223 227 232 236 237 236 236 238 239 240 242 246 253 257 258 257 253 249 250 252 252 251 252 257 262 264 265 261 257 257 259 259 260 263
242 227 222 219 215 211 209 207 205 203 203 203 204 204 204 204 204 205 204 204 204 204 205 206 206 207 208 207 207 208 212 216 216 214 214 215 215 213 212 213 214 215 216 216 216 216 215 215 216 217 217 219 222 225 228 232 235 235 235 238 240 242 244 247 249 250 252 254 255 251 247 246 249 250 251 256 261 262 262 261 257 257 258 258 259 263
251 231 222 220 217 213 211 208 207 205 204 203 204 205 205 204 205 205 204 204 204 205 205 206 207 209 210 210 210 210 211 216 217 215 215 216 216 214 213 213 213 215 217 218 218 217 217 216 216 216 216 217 219 221 223 225 228 231 234 238 241 244 246 247 247 247 249 252 254 255 251 246 246 247 249 254 258 257 258 258 257 257 260 259 258 261
268 238 224 220 218 216 213 210 208 207 205 204 205 205 206 205 205 205 205 204 204 204 204 204 205 208 212 213 212 211 212 214 217 217 216 216 217 216 214 214 213 214 216 219 220 220 218 216 216 217 217 217 218 221 224 225 226 228 232 234 236 237 241 245 246 246 249 250 252 255 255 250 248 247 248 252 253 251 252 255 255 257 262 264 260 257
298 249 229 221 218 217 215 212 210 208 207 206 206 206 207 206 206 206 205 204 204 203 203 202 201 203 208 210 210 210 211 212 215 217 217 217 217 217 216 214 214 214 215 218 221 221 218 217 217 217 217 218 218 220 222 222 222 224 226 228 230 232 236 242 246 247 248 248 249 253 255 254 252 249 248 251 251 247 249 252 253 256 262 265 263 258
320 272 237 224 218 218 217 215 212 209 208 207 207 207 208 207 206 206 205 204 204 203 202 202 201 203 205 206 207 209 210 210 212 216 218 218 217 217 216 215 214 214 215 217 220 220 218 217 218 217 217 217 218 218 218 220 220 219 221 224 228 232 235 239 244 248 248 246 244 247 251 252 252 250 248 249 248 246 249 252 253 255 260 263 262 257
329 299 252 229 220 217 217 216 213 211 210 209 207 207 208 208 207 207 206 205 204 203 203 202 203 205 206 206 207 209 210 211 212 214 217 218 218 217 216 215 215 215 216 218 221 221 218 216 217 218 218 219 219 218 218 220 220 219 219 221 224 228 232 236 239 242 244 243 240 241 245 248 249 249 247 246 244 245 249 251 249 249 251 254 255 252
331 316 274 238 223 217 216 215 214 212 212 210 208 207 208 209 209 208 207 206 204 204 204 203 203 205 208 208 207 209 210 211 212 212 214 217 218 217 217 216 215 215 216 218 221 222 220 217 216 218 219 219 220 220 219 220 220 220 220 221 222 224 226 228 231 234 237 239 238 239 242 245 247 247 246 244 243 245 248 250 248 246 245 248 251 250
329 323 292 252 230 220 216 214 213 212 212 212 210 208 208 209 209 209 208 207 206 205 206 205 204 206 208 208 208 209 211 212 212 212 212 215 218 218 217 216 216 215 215 217 218 219 219 217 216 217 218 219 219 219 220 220 220 220 221 222 223 224 225 226 230 232 234 237 239 240 242 244 246 247 246 245 245 246 246 247 247 245 244 246 249 249
327 324 304 266 239 225 217 214 213 212 212 212 211 210 209 209 210 209 209 209 208 207 207 207 206 207 209 209 208 208 211 213 213 213 213 214 217 218 218 217 217 216 215 216 216 216 215 215 215 215 216 218 218 218 219 220 221 220 221 223 224 226 227 229 230 233 235 237 239 239 240 242 244 245 245 244 245 246 247 247 247 245 244 245 247 247
325 325 311 278 249 231 220 214 212 212 212 213 212 211 210 209 209 210 210 210 209 208 208 209 209 209 210 211 210 210 211 213 214 215 215 215 216 218 219 219 219 219 218 217 217 216 214 214 214 214 214 216 217 218 219 220 222 222 222 224 225 227 228 230 231 233 235 237 237 237 238 239 241 243 244 245 246 248 249 249 249 247 244 244 246 247
323 325 316 288 258 238 224 215 212 211 212 213 213 212 211 210 210 210 210 210 210 210 210 210 211 211 212 214 214 213 214 214 216 217 217 217 217 218 220 221 221 222 222 221 219 218 217 216 216 215 215 215 216 218 219 220 222 224 225 225 226 227 228 230 232 233 234 235 236 237 238 239 241 244 246 247 247 248 248 249 248 247 244 243 244 246
323 325 319 295 266 246 229 218 213 210 211 212 213 213 212 211 211 211 211 211 211 211 211 211 212 213 214 215 215 216 216 216 217 218 219 220 220 220 220 221 223 225 226 225 223 222 221 220 219 218 218 217 217 218 219 220 222 225 227 228 229 229 230 231 232 234 235 236 237 238 239 240 241 243 244 246 247 246 246 245 244 244 243 244 244 245
321 324 320 300 273 253 234 221 215 211 210 212 213 213 213 212 212 212 212 212 212 212 213 213 213 214 215 215 216 217 217 217 217 218 219 220 221 221 221 222 223 225 227 228 228 227 225 223 222 221 221 221 221 220 221 222 223 224 226 228 230 231 233 234 234 235 236 237 238 239 240 241 241 242 242 244 245 245 244 243 243 242 243 244 246 245
319 323 321 305 281 260 238 224 217 212 210 211 213 213 213 213 213 214 214 214 214 214 214 214 214 214 215 216 217 218 218 218 218 219 219 219 220 221 222 222 223 224 226 227 228 228 227 225 224 223 223 223 224 224 225 225 225 225 226 227 228 230 233 235 236 237 238 239 239 240 241 242 242 242 243 243 245 245 246 246 246 246 246 247 248 248
317 322 322 309 288 268 243 225 217 212 209 210 212 214 214 214 214 215 215 215 216 216 215 216 216 216 216 216 217 218 218 218 219 220 220 220 220 220 221 223 223 224 225 226 227 227 227 226 225 224 224 224 225 226 227 228 228 228 227 227 228 230 233 236 238 239 240 240 241 241 242 243 243 243 243 244 245 246 248 249 249 250 249 249 250 251
315 322 324 314 294 275 248 226 216 209 206 205 205 210 217 217 215 215 216 216 217 217 217 217 217 217 217 217 218 218 219 219 220 221 221 222 222 221 221 222 223 224 225 226 227 227 227 227 226 226 225 225 225 226 228 229 231 231 231 230 230 231 234 236 239 241 241 242 243 243 243 243 244 244 244 245 246 247 248 249 250 250 250 249 249 250
314 321 325 318 300 281 250 224 211 204 201 195 188 195 216 220 217 216 217 217 218 218 218 218 218 218 219 219 219 219 220 220 220 221 222 222 223 223 222 222 223 224 225 226 227 228 229 229 228 227 227 226 226 227 228 229 231 233 234 234 234 234 235 236 238 240 242 243 244 245 245 245 245 245 245 245 246 247 247 248 249 250 249 249 248 248
313 321 326 320 305 286 253 221 206 200 196 187 181 189 209 219 218 218 218 218 219 220 220 219 219 219 220 220 220 220 221 221 222 222 223 223 224 225 225 224 225 225 226 226 227 228 230 231 231 231 230 229 228 229 230 230 231 233 235 236 237 237 237 238 239 240 242 243 245 246 246 247 247 247 247 247 247 247 247 247 248 249 249 249 249 249
311 319 325 321 306 288 257 222 206 199 194 188 186 192 204 213 216 217 218 218 219 220 221 221 220 220 220 221 221 222 222 223 223 224 224 225 226 226 227 227 227 228 228 228 228 229 230 231 233 234 233 232 232 232 232 233 233 234 236 237 239 240 240 240 240 240 241 243 245 246 247 248 248 249 249 249 249 249 249 249 249 249 249 249 249 250
Height
10884 10888 10893 10897 10898 10897 10899 10907 10916 10922 10928 10934 10941 10946 10952 10957 10962 10966 10970 10975 10978 10979 10981 10983 10985 10987 10989 10990 10992 10994 10996 10996 10997 10997 10998 11000 11001 11002 11002 11003 11003 11003 11003 11002 11002 11001 11000 10999 10998 10998 10997 10996 10995 10994 10994 10993 10993 10992 10990 10989 10988 10987 10985 10984 10983 10982 10981 10980 10979 10977 10976 10975 10974 10972 10970 10969 10968 10967 10966 10965 10965 10964 10964 10963 10963 10963
10877 10881 10885 10886 10888 10889 10893 10904 10911 10916 10922 10929 10936 10942 10947 10952 10957 10962 10967 10970 10973 10976 10978 10980 10982 10984 10986 10988 10989 10992 10994 10995 10996 10996 10997 10999 11000 11001 11002 11003 11003 11003 11004 11003 11003 11003 11002 11001 11000 10999 10999 10998 10997 10996 10996 10995 10995 10994 10993 10992 10991 10990 10989 10988 10986 10985 10983 10982 10981 10980 10979 10978 10977 10975 10973 10972 10971 10970 10969 10968 10968 10967 10966 10966 10965 10964
10868 10871 10872 10875 10879 10883 10889 10899 10906 10911 10918 10925 10931 10936 10941 10947 10952 10957 10962 10966 10969 10973 10975 10977 10979 10981 10983 10985 10987 10990 10993 10994 10995 10996 10997 10998 10999 11000 11002 11003 11003 11004 11004 11004 11004 11003 11003 11002 11001 11001 11000 10999 10999 10998 10998 10997 10996 10996 10995 10994 10993 10992 10992 10990 10989 10988 10986 10985 10984 10983 10982 10981 10980 10978 10977 10976 10975 10974 10973 10971 10970 10970 10969 10968 10967 10966
10856 10857 10859 10865 10873 10879 10884 10892 10900 10907 10912 10919 10925 10929 10935 10941 10946 10952 10957 10962 10966 10970 10972 10974 10976 10978 10979 10983 10985 10987 10990 10993 10994 10995 10996 10997 10998 10999 11000 11002 11003 11004 11004 11005 11004 11004 11004 11003 11003 11002 11001 11001 11000 11000 10999 10999 10999 10999 10998 10997 10996 10995 10994 10993 10992 10991 10990 10989 10988 10987 10985 10984 10983 10982 10981 10979 10978 10977 10976 10975 10973 10972 10971 10970 10969 10969
10844 10847 10853 10861 10869 10873 10878 10887 10895 10900 10906 10912 10918 10924 10930 10936 10941 10947 10952 10957 10961 10965 10967 10969 10972 10975 10977 10980 10983 10985 10988 10991 10993 10994 10996 10997 10998 10998 10999 11001 11002 11003 11004 11005 11005 11005 11004 11004 11004 11003 11003 11002 11002 11002 11001 11001 11001 11001 11001 11000 10999 10998 10997 10996 10995 10994 10993 10992 10991 10990 10989 10987 10986 10985 10984 10983 10982 10980 10979 10978 10976 10975 10974 10973 10973 10972
10834 10841 10849 10856 10862 10866 10872 10881 10887 10892 10899 10906 10912 10919 10925 10930 10936 10942 10947 10952 10956 10960 10962 10965 10969 10972 10974 10978 10981 10983 10986 10989 10991 10993 10995 10996 10997 10998 10999 11000 11001 11003 11004 11005 11005 11005 11005 11005 11005 11004 11004 11004 11004 11003 11003 11003 11003 11003 11003 11002 11001 11001 11000 10999 10998 10997 10997 10996 10995 10993 10992 10991 10989 10988 10987 10986 10985 10984 10983 10981 10980 10979 10978 10977 10976 10975
10823 10832 10840 10846 10853 10859 10867 10875 10880 10886 10893 10900 10907 10914 10920 10926 10931 10936 10941 10946 10951 10955 10958 10962 10965 10968 10971 10975 10978 10981 10983 10987 10990 10992 10994 10995 10996 10997 10998 10999 11001 11002 11003 11004 11005 11006 11006 11006 11005 11005 11005 11005 11005 11005 11005 11005 11004 11004 11004 11004 11003 11003 11002 11001 11001 11000 10999 10999 10998 10997 10996 10994 10993 10992 10991 10989 10988 10987 10986 10985 10984 10982 10981 10980 10979 10979
10808 10819 10828 10836 10844 10852 10862 10869 10874 10880 10887 10895 10903 10909 10914 10920 10924 10929 10934 10940 10946 10951 10954 10958 10962 10965 10969 10972 10975 10977 10981 10984 10988 10990 10992 10993 10995 10997 10997 10999 11000 11001 11002 11003 11004 11005 11006 11006 11006 11006 11006 11006 11006 11006 11006 11006 11006 11006 11006 11005 11005 11005 11004 11004 11003 11002 11002 11001 11000 10999 10999 10998 10997 10995 10994 10993 10991 10991 10990 10989 10987 10986 10985 10984 10983 10982
10796 10807 10817 10827 10836 10846 10855 10860 10865 10873 10883 10891 10897 10903 10908 10912 10917 10923 10929 10935 10942 10947 10950 10954 10958 10962 10965 10968 10972 10975 10979 10982 10985 10988 10990 10992 10994 10996 10996 10998 10999 11000 11001 11002 11003 11004 11005 11006 11006 11006 11006 11006 11006 11007 11007 11007 11007 11007 11007 11007 11007 11006 11006 11006 11005 11005 11004 11003 11003 11002 11001 11000 11000 10999 10997 10996 10995 10994 10993 10992 10991 10990 10989 10987 10986 10985
10785 10796 10807 10819 10830 10838 10844 10850 10857 10868 10877 10883 10889 10896 10900 10904 10911 10917 10924 10930 10936 10941 10946 10950 10955 10959 10962 10966 10970 10974 10978 10980 10983 10985 10988 10990 10992 10994 10996 10997 10999 10999 11000 11001 11002 11003 11005 11006 11006 11006 11006 11007 11007 11007 11007 11007 11008 11008 11008 11008 11008 11008 11008 11008 11007 11007 11006 11005 11005 11004 11004 11003 11002 11001 11000 10999 10998 10997 10996 10995 10994 10993 10992 10991 10989 10988
10775 10787 10799 10810 10820 10827 10835 10844 10852 10861 10869 10877 10884 10890 10894 10899 10905 10912 10918 10924 10929 10935 10940 10945 10950 10954 10959 10963 10967 10972 10973 10975 10979 10983 10985 10987 10990 10992 10994 10995 10997 10998 10999 11000 11001 11002 11004 11005 11006 11006 11006 11007 11007 11007 11007 11008 11008 11008 11009 11009 11009 11009 11009 11009 11009 11008 11008 11008 11007 11007 11006 11005 11005 11004 11003 11002 11001 11000 10999 10998 10997 10996 10995 10994 10993 10991
10767 10778 10789 10798 10808 10818 10830 10841 10847 10855 10864 10871 10877 10884 10890 10895 10901 10907 10912 10918 10923 10929 10934 10938 10944 10949 10955 10959 10963 10966 10967 10970 10976 10980 10982 10985 10987 10990 10992 10993 10996 10997 10998 10999 11000 11001 11002 11004 11005 11006 11006 11007 11007 11007 11008 11008 11009 11009 11009 11010 11010 11010 11010 11010 11011 11010 11010 11009 11009 11009 11008 11008 11007 11006 11006 11005 11004 11003 11002 11001 11000 10999 10998 10997 10996 10995
10760 10770 10780 10789 10799 10811 10825 10835 10842 10850 10857 10863 10869 10877 10884 10891 10896 10901 10906 10912 10919 10924 10929 10934 10939 10945 10950 10954 10958 10961 10964 10969 10974 10977 10980 10983 10985 10988 10990 10991 10994 10996 10997 10998 10999 11000 11001 11003 11004 11005 11006 11007 11007 11008 11008 11009 11009 11009 11010 11010 11010 11011 11011 11011 11012 11012 11012 11011 11011 11010 11010 11010 11009 11009 11008 11007 11006 11006 11005 11004 11003 11002 11002 11000 10999 10998
10755 10764 10773 10782 10793 10806 10818 10828 10836 10842 10850 10857 10864 10870 10876 10884 10890 10895 10900 10907 10914 10919 10925 10930 10936 10941 10945 10950 10954 10958 10962 10966 10970 10974 10977 10980 10982 10985 10987 10989 10992 10994 10996 10997 10998 10999 11001 11002 11003 11004 11006 11006 11007 11008 11008 11009 11009 11009 11010 11010 11011 11011 11011 11012 11012 11013 11013 11013 11012 11012 11012 11011 11011 11011 11010 11010 11009 11008 11008 11007 11006 11005 11004 11003 11002 11002
10749 10756 10765 10776 10788 10801 10811 10819 10825 10830 10837 10845 10853 10861 10869 10875 10881 10888 10895 10902 10909 10916 10921 10926 10931 10936 10941 10946 10950 10953 10957 10962 10967 10971 10975 10977 10980 10982 10985 10987 10989 10991 10994 10995 10996 10998 10999 11001 11002 11004 11005 11006 11007 11007 11008 11009 11009 11009 11010 11010 11011 11011 11012 11012 11012 11013 11013 11013 11013 11013 11013 11013 11013 11012 11012 11011 11011 11010 11010 11009 11009 11008 11007 11006 11005 11004
10742 10750 10761 10773 10786 10796 10803 10810 10817 10823 10829 10839 10849 10856 10861 10866 10874 10883 10891 10898 10906 10912 10917 10921 10927 10932 10936 10941 10945 10948 10953 10959 10963 10968 10972 10974 10977 10979 10982 10984 10985 10987 10990 10992 10993 10995 10997 10999 11001 11003 11004 11005 11006 11007 11008 11008 11009 11009 11009 11010 11010 11011 11011 11012 11012 11013 11013 11014 11014 11014 11014 11014 11014 11014 11013 11013 11012 11012 11012 11011 11011 11010 11010 11009 11008 11007
10735 10745 10757 10770 10783 10791 10797 10807 10814 10818 10825 10835 10842 10847 10853 10861 10870 10878 10887 10896 10902 10907 10912 10917 10922 10927 10932 10937 10941 10944 10950 10955 10959 10964 10968 10970 10973 10975 10978 10980 10982 10984 10986 10989 10991 10993 10995 10997 11000 11001 11003 11004 11005 11006 11007 11007 11008 11009 11009 11009 11010 11010 11011 11011 11012 11013 11013 11014 11014 11014 11015 11015 11015 11015 11015 11014 11014 11014 11014 11013 11013 11012 11012 11011 11010 11009
10729 10739 10751 10764 10775 10783 10793 10803 10809 10812 10819 10826 10831 10839 10849 10859 10866 10874 10882 10888 10894 10900 10906 10913 10918 10923 10928 10932 10935 10940 10945 10950 10955 10960 10964 10967 10970 10972 10974 10977 10980 10983 10985 10987 10990 10992 10994 10996 10998 11000 11001 11002 11004 11005 11005 11006 11007 11008 11008 11009 11009 11010 11010 11011 11012 11013 11013 11014 11014 11015 11015 11015 11015 11016 11016 11016 11016 11016 11016 11015 11015 11014 11014 11013 11013 11012
10726 10735 10745 10757 10767 10777 10788 10797 10800 10805 10813 10818 10825 10837 10848 10854 10860 10867 10873 10879 10886 10894 10901 10908 10914 10918 10923 10928 10931 10935 10941 10946 10951 10956 10960 10964 10966 10968 10971 10975 10978 10981 10983 10986 10988 10990 10992 10993 10995 10997 10999 11000 11001 11002 11003 11004 11005 11006 11007 11008 11009 11009 11010 11010 11011 11012 11013 11014 11014 11015 11016 11016 11016 11016 11017 11017 11017 11017 11017 11017 11017 11016 11016 11015 11015 11014
10725 10732 10740 10749 10759 10769 10779 10787 10792 10798 10805 10813 10823 10834 10842 10846 10853 10860 10866 10875 10884 10891 10897 10904 10909 10913 10919 10924 10927 10931 10938 10943 10948 10952 10956 10960 10962 10965 10969 10973 10976 10979 10981 10983 10985 10987 10988 10990 10992 10994 10996 10998 10999 11000 11001 11002 11003 11004 11006 11007 11008 11008 11009 11010 11010 11011 11012 11013 11014 11015 11015 11016 11017 11017 11017 11018 11018 11018 11018 11018 11018 11018 11017 11017 11016 11016
10724 10729 10734 10742 10751 10760 10771 10778 10784 10792 10801 10808 10817 10826 10832 10839 10847 10855 10863 10873 10881 10886 10893 10900 10905 10910 10915 10920 10923 10928 10935 10940 10944 10948 10952 10956 10960 10964 10967 10970 10973 10975 10977 10979 10981 10983 10985 10987 10989 10992 10994 10996 10997 10998 10999 11000 11002 11003 11004 11005 11006 11007 11008 11009 11010 11010 11011 11012 11013 11014 11015 11015 11016 11017 11018 11018 11018 11019 11019 11019 11019 11019 11018 11018 11018 11017
10722 10725 10729 10736 10745 10753 10762 10770 10778 10786 10794 10801 10812 10821 10828 10836 10846 10855 10862 10868 10875 10881 10889 10896 10902 10907 10912 10916 10919 10925 10931 10936 10939 10944 10948 10953 10957 10959 10962 10965 10967 10970 10972 10975 10977 10980 10983 10985 10987 10990 10992 10994 10995 10996 10997 10999 11000 11001 11002 11003 11004 11005 11006 11007 11008 11009 11010 11011 11012 11013 11013 11014 11015 11016 11017 11018 11018 11018 11019 11019 11019 11019 11019 11019 11018 11018
10719 10722 10725 10732 10739 10746 10755 10764 10772 10779 10787 10798 10811 10821 10829 10839 10849 10857 10861 10865 10871 10879 10888 10896 10901 10904 10908 10912 10915 10921 10927 10931 10934 10939 10943 10948 10951 10954 10957 10960 10963 10966 10969 10972 10975 10978 10980 10981 10984 10986 10989 10991 10993 10994 10995 10996 10998 10999 11000 11001 11002 11003 11004 11005 11006 11007 11008 11009 11010 11011 11012 11013 11014 11015 11016 11016 11017 11018 11018 11019 11019 11019 11019 11019 11019 11018
10716 10719 10724 10728 10733 10740 10750 10760 10767 10775 10784 10797 10809 10817 10826 10836 10845 10853 10858 10865 10873 10880 10888 10894 10898 10901 10904 10908 10912 10916 10921 10926 10929 10934 10939 10944 10947 10950 10953 10957 10960 10963 10967 10971 10974 10975 10976 10977 10979 10982 10984 10987 10989 10991 10992 10994 10995 10997 10998 10998 11000 11001 11003 11004 11005 11005 11007 11008 11009 11010 11011 11012 11012 11013 11014 11015 11016 11017 11017 11018 11019 11019 11019 11019 11019 11019
10713 10716 10721 10725 10728 10736 10746 10754 10761 10771 10781 10792 10801 10809 10819 10829 10838 10845 10852 10861 10869 10876 10883 10890 10894 10897 10900 10904 10908 10912 10917 10923 10927 10931 10936 10940 10942 10946 10949 10953 10957 10960 10964 10967 10969 10971 10973 10975 10977 10978 10981 10983 10986 10989 10990 10991 10992 10994 10995 10996 10998 10999 11001 11002 11003 11004 11005 11006 11008 11009 11010 11010 11011 11012 11013 11014 11014 11015 11016 11017 11018 11018 11019 11019 11019 11019
10710 10713 10717 10722 10727 10735 10742 10749 10757 10767 10778 10787 10796 10804 10813 10822 10829 10836 10844 10854 10862 10869 10877 10883 10888 10892 10896 10900 10904 10908 10913 10919 10923 10927 10932 10935 10938 10942 10946 10950 10953 10957 10960 10962 10964 10966 10969 10972 10975 10976 10979 10981 10984 10987 10988 10989 10990 10991 10993 10994 10995 10996 10997 10999 11001 11002 11003 11004 11005 11007 11008 11009 11010 11011 11011 11012 11013 11014 11015 11016 11017 11018 11018 11018 11019 11019
10708 10710 10713 10718 10725 10734 10741 10748 10758 10768 10776 10785 10793 10800 10808 10815 10821 10829 10838 10847 10855 10863 10870 10876 10883 10888 10891 10896 10900 10903 10909 10915 10918 10922 10926 10929 10933 10937 10942 10945 10949 10953 10956 10958 10961 10963 10965 10968 10971 10973 10976 10978 10980 10984 10986 10987 10987 10988 10988 10988 10989 10990 10993 10996 10997 10998 11000 11001 11003 11004 11006 11007 11008 11009 11010 11011 11012 11013 11013 11014 11015 11016 11017 11017 11018 11018
10705 10707 10710 10715 10721 10730 10738 10747 10757 10767 10775 10782 10787 10795 10803 10810 10816 10825 10833 10840 10849 10858 10865 10871 10878 10882 10886 10891 10896 10898 10903 10909 10914 10918 10921 10925 10929 10933 10937 10941 10945 10949 10952 10955 10958 10961 10963 10965 10967 10970 10972 10974 10976 10980 10983 10984 10984 10984 10983 10982 10983 10987 10991 10993 10993 10995 10997 10999 11000 11001 11002 11004 11005 11006 11008 11009 11010 11010 11011 11012 11013 11014 11015 11015 11016 11017
10703 10705 10708 10712 10718 10726 10734 10744 10753 10762 10771 10776 10782 10790 10799 10806 10814 10822 10829 10835 10844 10850 10856 10865 10872 10876 10881 10887 10891 10893 10897 10903 10909 10913 10917 10921 10925 10930 10933 10937 10941 10945 10948 10952 10955 10957 10959 10961 10964 10966 10968 10970 10973 10976 10979 10980 10981 10981 10980 10979 10981 10984 10987 10988 10990 10992 10994 10996 10997 10998 10999 11000 11002 11003 11005 11006 11007 11008 11009 11010 11011 11012 11013 11014 11014 11015
10701 10703 10705 10709 10715 10722 10730 10738 10747 10756 10764 10770 10778 10787 10795 10802 10810 10817 10823 10830 10836 10841 10849 10860 10866 10871 10877 10882 10886 10888 10891 10897 10903 10907 10912 10917 10921 10926 10930 10933 10937 10941 10945 10949 10951 10954 10956 10958 10960 10963 10965 10967 10970 10973 10975 10977 10978 10978 10978 10978 10979 10980 10981 10983 10985 10987 10990 10992 10994 10995 10996 10997 10999 11000 11002 11003 11004 11005 11006 11007 11008 11010 11011 11011 11012 11013
10699 10701 10703 10707 10712 10717 10725 10734 10742 10751 10757 10764 10773 10783 10791 10798 10805 10812 10817 10823 10828 10835 10845 10854 10858 10863 10870 10875 10880 10882 10885 10890 10897 10902 10906 10911 10916 10921 10925 10929 10933 10936 10940 10944 10947 10950 10953 10955 10957 10960 10962 10965 10969 10971 10973 10974 10975 10976 10976 10976 10977 10977 10978 10979 10980 10982 10984 10987 10990 10992 10993 10994 10995 10997 10998 10999 11001 11001 11003 11004 11006 11007 11008 11009 11010 11010
10696 10698 10700 10704 10708 10713 10721 10729 10737 10744 10750 10757 10766 10774 10783 10791 10799 10806 10812 10817 10824 10833 10841 10846 10851 10858 10864 10869 10873 10877 10879 10884 10891 10897 10901 10905 10910 10915 10920 10924 10928 10931 10935 10938 10942 10945 10948 10951 10954 10957 10960 10964 10967 10969 10971 10972 10972 10973 10973 10974 10974 10974 10975 10976 10977 10977 10978 10980 10984 10987 10989 10991 10992 10993 10994 10996 10998 10999 11000 11001 11002 11004 11004 11005 11006 11007
10692 10694 10697 10700 10704 10710 10716 10724 10731 10737 10744 10752 10760 10767 10775 10784 10791 10799 10806 10813 10821 10830 10836 10842 10849 10855 10859 10864 10868 10872 10875 10879 10884 10890 10895 10899 10904 10909 10914 10919 10922 10926 10929 10932 10936 10940 10942 10946 10950 10953 10957 10961 10963 10966 10968 10969 10970 10971 10971 10971 10972 10972 10972 10972 10973 10973 10972 10973 10977 10981 10984 10986 10988 10989 10991 10993 10994 10996 10997 10998 10999 11000 11001 11002 11003 11004
10689 10691 10693 10696 10700 10705 10710 10717 10725 10732 10739 10747 10754 10761 10769 10777 10784 10791 10799 10808 10816 10825 10833 10842 10850 10855 10858 10861 10865 10869 10872 10874 10878 10884 10889 10893 10898 10903 10908 10912 10917 10921 10924 10928 10932 10935 10938 10941 10944 10948 10952 10955 10958 10961 10964 10965 10967 10968 10969 10970 10971 10971 10969 10967 10966 10966 10966 10968 10971 10974 10977 10981 10983 10985 10987 10989 10991 10993 10994 10994 10995 10996 10997 10999 11000 11001
10686 10688 10690 10692 10695 10699 10704 10710 10718 10727 10736 10744 10749 10755 10763 10772 10778 10785 10794 10802 10811 10820 10830 10839 10848 10855 10858 10859 10861 10865 10868 10870 10872 10877 10881 10886 10891 10896 10901 10906 10911 10916 10921 10926 10929 10930 10931 10935 10938 10943 10947 10950 10953 10956 10958 10961 10963 10964 10965 10966 10966 10966 10964 10961 10961 10961 10961 10962 10964 10967 10970 10974 10978 10980 10983 10984 10987 10989 10989 10990 10991 10992 10995 10997 10998 10998
10682 10684 10686 10688 10690 10694 10699 10705 10712 10722 10732 10739 10744 10751 10758 10765 10772 10780 10788 10797 10805 10814 10822 10829 10836 10841 10843 10846 10850 10854 10858 10861 10864 10868 10873 10878 10884 10890 10895 10900 10906 10911 10917 10921 10920 10919 10923 10929 10933 10937 10942 10944 10946 10949 10951 10953 10954 10956 10958 10958 10958 10959 10958 10956 10956 10957 10956 10957 10959 10961 10963 10967 10971 10974 10977 10980 10982 10984 10984 10985 10987 10989 10992 10994 10995 10996
10678 10680 10682 10684 10686 10689 10694 10700 10709 10718 10724 10731 10738 10745 10751 10757 10764 10773 10781 10790 10799 10806 10812 10818 10821 10821 10824 10831 10837 10841 10846 10851 10856 10860 10864 10870 10877 10883 10888 10893 10898 10903 10909 10911 10908 10910 10918 10925 10928 10931 10934 10936 10938 10940 10942 10943 10944 10947 10950 10951 10952 10952 10952 10952 10953 10953 10951 10952 10954 10955 10957 10960 10964 10968 10971 10975 10978 10978 10978 10980 10983 10986 10990 10991 10991 10991
10675 10675 10677 10679 10682 10685 10688 10694 10703 10711 10717 10722 10729 10737 10742 10749 10757 10766 10775 10783 10791 10797 10802 10807 10809 10810 10815 10822 10826 10830 10836 10843 10848 10852 10857 10864 10869 10874 10879 10885 10890 10895 10899 10901 10901 10906 10913 10918 10921 10924 10927 10929 10931 10932 10934 10935 10937 10940 10942 10943 10944 10944 10944 10945 10946 10946 10944 10945 10946 10948 10950 10953 10956 10960 10964 10968 10971 10971 10971 10974 10978 10981 10984 10984 10982 10982
10672 10672 10672 10674 10677 10679 10682 10687 10694 10702 10708 10714 10721 10728 10734 10742 10751 10760 10769 10776 10783 10788 10793 10798 10800 10804 10809 10815 10818 10823 10829 10835 10839 10845 10850 10855 10860 10864 10871 10878 10883 10888 10892 10894 10896 10900 10906 10910 10913 10916 10918 10921 10924 10926 10927 10928 10930 10933 10934 10934 10934 10935 10935 10935 10936 10936 10937 10938 10939 10942 10944 10946 10949 10952 10956 10961 10963 10963 10964 10968 10971 10974 10975 10974 10973 10975
10669 10668 10667 10669 10671 10673 10676 10680 10686 10693 10699 10705 10713 10721 10729 10737 10746 10755 10763 10770 10775 10780 10785 10789 10793 10797 10802 10807 10812 10817 10822 10826 10832 10838 10843 10847 10851 10858 10865 10871 10876 10881 10884 10886 10888 10892 10897 10902 10905 10907 10910 10913 10916 10918 10920 10921 10923 10925 10926 10926 10926 10926 10926 10926 10927 10928 10929 10931 10933 10935 10937 10940 10942 10945 10950 10952 10952 10953 10956 10960 10963 10964 10965 10964 10966 10968
10666 10664 10663 10663 10665 10667 10670 10674 10679 10685 10690 10696 10703 10713 10722 10731 10740 10749 10756 10762 10768 10773 10777 10781 10785 10789 10794 10799 10804 10808 10813 10820 10827 10832 10837 10841 10845 10851 10857 10863 10868 10872 10875 10876 10879 10883 10888 10893 10896 10899 10902 10904 10906 10909 10911 10913 10915 10917 10917 10917 10918 10918 10918 10919 10919 10920 10922 10924 10926 10928 10930 10933 10936 10938 10942 10943 10941 10943 10947 10951 10954 10956 10956 10957 10958 10958
10663 10661 10659 10658 10659 10661 10664 10668 10673 10677 10682 10688 10696 10705 10714 10723 10731 10739 10747 10754 10760 10766 10771 10774 10778 10782 10787 10792 10796 10801 10806 10813 10820 10825 10830 10835 10839 10844 10849 10855 10860 10862 10865 10867 10870 10875 10880 10884 10887 10890 10893 10895 10897 10899 10902 10905 10907 10909 10910 10910 10911 10911 10912 10912 10912 10913 10914 10916 10918 10921 10924 10927 10929 10931 10934 10935 10934 10935 10939 10942 10945 10948 10948 10949 10950 10950
10660 10657 10655 10653 10654 10655 10658 10661 10665 10669 10674 10680 10688 10697 10706 10714 10721 10729 10738 10745 10751 10758 10764 10768 10772 10777 10782 10786 10791 10795 10801 10807 10812 10817 10822 10827 10832 10837 10842 10847 10851 10853 10856 10859 10863 10868 10872 10876 10879 10882 10885 10887 10889 10891 10893 10896 10898 10900 10902 10903 10904 10904 10904 10905 10905 10905 10906 10908 10910 10913 10916 10919 10921 10924 10926 10927 10928 10929 10931 10933 10936 10938 10940 10941 10942 10942
10656 10653 10651 10649 10649 10650 10652 10655 10658 10663 10667 10672 10679 10688 10699 10708 10716 10724 10731 10738 10744 10750 10756 10761 10766 10771 10776 10781 10785 10790 10796 10800 10805 10810 10814 10819 10824 10830 10835 10840 10843 10845 10847 10851 10855 10859 10863 10867 10872 10875 10877 10879 10881 10883 10884 10886 10889 10891 10893 10894 10895 10896 10897 10897 10897 10897 10898 10900 10902 10904 10907 10910 10913 10915 10917 10919 10921 10922 10924 10925 10927 10929 10931 10933 10934 10935
10652 10650 10647 10645 10644 10645 10646 10649 10653 10657 10662 10666 10673 10683 10693 10703 10713 10720 10727 10733 10738 10743 10749 10754 10759 10765 10770 10775 10780 10785 10789 10794 10798 10803 10807 10812 10817 10822 10827 10832 10835 10837 10839 10842 10846 10850 10853 10858 10862 10866 10869 10871 10873 10874 10876 10878 10879 10881 10882 10884 10886 10887 10888 10889 10890 10890 10892 10893 10894 10896 10898 10901 10903 10906 10908 10911 10913 10914 10916 10917 10919 10921 10923 10924 10925 10926
10649 10647 10644 10641 10640 10640 10641 10644 10648 10652 10658 10664 10670 10679 10688 10698 10707 10714 10719 10725 10730 10736 10741 10746 10751 10757 10763 10768 10772 10777 10782 10786 10790 10794 10799 10804 10810 10814 10818 10823 10826 10828 10830 10833 10837 10840 10843 10848 10852 10856 10859 10861 10863 10864 10866 10868 10870 10871 10872 10873 10875 10877 10879 10881 10882 10883 10884 10885 10887 10888 10890 10892 10894 10896 10899 10901 10903 10905 10907 10908 10910 10912 10914 10915 10916 10917
10647 10644 10640 10638 10637 10636 10637 10640 10642 10647 10655 10662 10670 10679 10686 10692 10699 10705 10709 10716 10723 10729 10735 10739 10744 10750 10755 10760 10764 10769 10772 10777 10780 10784 10790 10795 10800 10805 10809 10812 10815 10817 10820 10824 10827 10830 10833 10837 10841 10845 10847 10850 10852 10854 10855 10857 10859 10861 10862 10863 10864 10866 10868 10870 10872 10874 10876 10877 10878 10880 10881 10883 10884 10887 10889 10891 10893 10895 10897 10898 10900 10902 10904 10906 10907 10908
10644 10641 10637 10635 10633 10632 10633 10636 10639 10645 10652 10659 10672 10684 10687 10687 10691 10697 10701 10707 10713 10717 10722 10729 10735 10741 10746 10750 10754 10759 10763 10767 10771 10775 10780 10785 10790 10794 10798 10802 10804 10807 10810 10813 10817 10820 10823 10827 10830 10834 10836 10839 10841 10844 10845 10846 10848 10850 10852 10854 10855 10856 10857 10859 10862 10864 10866 10867 10869 10871 10872 10873 10875 10876 10879 10880 10882 10884 10886 10887 10888 10890 10893 10895 10897 10898
10641 10639 10635 10632 10630 10629 10630 10632 10636 10641 10646 10652 10664 10676 10678 10677 10682 10687 10692 10698 10702 10706 10712 10720 10727 10732 10737 10740 10745 10750 10754 10758 10762 10765 10770 10775 10779 10784 10788 10792 10795 10798 10801 10804 10806 10809 10813 10816 10820 10823 10826 10828 10831 10833 10835 10836 10838 10840 10841 10843 10845 10846 10847 10848 10850 10852 10854 10855 10857 10859 10861 10863 10864 10866 10867 10869 10871 10873 10874 10876 10877 10879 10882 10884 10886 10887
10638 10636 10633 10630 10628 10627 10628 10629 10632 10637 10642 10645 10652 10658 10662 10665 10672 10679 10686 10692 10696 10699 10705 10712 10718 10723 10728 10732 10736 10741 10745 10749 10753 10757 10761 10765 10769 10774 10779 10783 10786 10788 10791 10794 10797 10800 10803 10806 10809 10812 10815 10818 10821 10823 10824 10826 10827 10828 10830 10831 10833 10835 10836 10838 10839 10840 10841 10842 10844 10846 10848 10850 10852 10854 10856 10858 10860 10861 10863 10865 10866 10868 10870 10872 10874 10876
10635 10634 10631 10628 10626 10625 10625 10627 10630 10633 10638 10641 10644 10648 10652 10657 10663 10671 10677 10681 10684 10689 10695 10702 10708 10714 10718 10722 10727 10732 10736 10740 10744 10748 10752 10756 10760 10764 10768 10773 10776 10780 10782 10785 10788 10791 10793 10796 10798 10801 10804 10807 10809 10811 10813 10814 10816 10817 10817 10819 10820 10822 10824 10826 10827 10828 10829 10830 10832 10833 10835 10837 10839 10842 10843 10845 10847 10849 10851 10852 10854 10856 10858 10860 10862 10864